,,PA_Meas_PMT16A,,PR_Meas_QMR101_102,,RH_Meas_QMH101,,SR_Meas_QMS101,,TA_Meas_QMH101,,GenWind,,GenWind,
time,status,PA,status,PR,status,RH,status,SR,status,TA,status,DirAvg,status,SpdAvg,
2016-11-12, 14:24:04,VALID,918.664,VALID,0,INVALID,117.241,VALID,151.385,VALID,20.1123,VALID,352,VALID,0,
2016-11-12, 14:25:04,VALID,918.692,VALID,0,INVALID,117.37,VALID,165.244,VALID,20.1529,VALID,6,VALID,0,
2016-11-12, 14:26:04,VALID,918.724,VALID,0,INVALID,117.332,VALID,168.468,VALID,20.1708,VALID,6,VALID,0,
2016-11-12, 14:27:04,VALID,918.746,VALID,0,INVALID,117.126,VALID,184.047,VALID,20.3074,VALID,6,VALID,0,
2016-11-12, 14:28:04,VALID,918.75,VALID,0,INVALID,117.103,VALID,205.213,VALID,20.4049,VALID,22,VALID,0,
2016-11-12, 14:29:04,VALID,918.752,VALID,0,INVALID,117.385,VALID,228.742,VALID,20.4049,VALID,23,VALID,0,
2016-11-12, 14:30:04,VALID,918.777,VALID,0,INVALID,117.279,VALID,184.262,VALID,20.5219,VALID,5,VALID,0,
2016-11-12, 14:31:04,VALID,918.807,VALID,0,INVALID,117.324,VALID,163.525,VALID,20.66,VALID,23,VALID,0,
2016-11-12, 14:32:04,VALID,918.798,VALID,0,INVALID,117.812,VALID,153.426,VALID,20.5804,VALID,23,VALID,0,
2016-11-12, 14:33:04,VALID,918.804,VALID,0,INVALID,118.041,VALID,155.145,VALID,20.5804,VALID,23,VALID,0,
2016-11-12, 14:34:04,VALID,918.845,VALID,0,INVALID,118.171,VALID,146.765,VALID,20.5804,VALID,23,VALID,0,
2016-11-12, 14:43:04,VALID,918.938,VALID,0,INVALID,119.81,VALID,167.071,VALID,20.8145,VALID,22,VALID,0,
2016-11-12, 14:44:04,VALID,918.995,VALID,0,INVALID,120.244,VALID,157.294,VALID,20.8551,VALID,43,VALID,0,
2016-11-12, 14:45:04,VALID,918.959,VALID,0,INVALID,120.663,VALID,162.344,VALID,20.8145,VALID,43,VALID,0,
2016-11-12, 14:46:04,VALID,919.006,VALID,0,INVALID,120.793,VALID,180.286,VALID,20.873,VALID,330,VALID,0,
2016-11-12, 14:47:04,VALID,919.013,VALID,0,INVALID,121.052,VALID,178.03,VALID,20.912,VALID,203,VALID,0,
2016-11-12, 14:48:04,VALID,919.012,VALID,0,INVALID,121.51,VALID,262.049,VALID,20.912,VALID,185,VALID,0,
2016-11-12, 14:49:04,VALID,919.017,VALID,0,INVALID,122.005,VALID,280.421,VALID,20.9316,VALID,181,VALID,0,
2016-11-12, 14:54:04,VALID,919,VALID,0,INVALID,122.508,VALID,155.682,VALID,21.2047,VALID,183,VALID,0,
2016-11-12, 14:55:04,VALID,919.01,VALID,0,INVALID,122.249,VALID,160.839,VALID,21.2242,VALID,183,VALID,0,
2016-11-12, 14:59:04,VALID,919.045,VALID,0,INVALID,121.502,VALID,204.031,VALID,21.4014,VALID,152,VALID,0,
2016-11-12, 15:00:04,VALID,919.086,VALID,0,INVALID,121.205,VALID,150.955,VALID,21.3998,VALID,130,VALID,0,
2016-11-12, 15:03:04,VALID,919.096,VALID,0,INVALID,120.198,VALID,143.112,VALID,21.4567,VALID,153,VALID,0.949609,
2016-11-12, 15:08:04,VALID,919.142,VALID,0,INVALID,119.741,VALID,173.303,VALID,21.6534,VALID,170,VALID,0,
2016-11-12, 15:09:04,VALID,919.148,VALID,0,INVALID,119.55,VALID,254.636,VALID,21.751,VALID,163,VALID,0,
2016-11-12, 15:10:04,VALID,919.165,VALID,0,INVALID,119.032,VALID,204.353,VALID,21.7883,VALID,131,VALID,0,
2016-11-12, 15:11:04,VALID,919.192,VALID,0,INVALID,118.811,VALID,199.303,VALID,21.7883,VALID,127,VALID,0,
2016-11-12, 15:12:04,VALID,919.174,VALID,0,INVALID,119.55,VALID,239.701,VALID,21.8664,VALID,101,VALID,0,
2016-11-12, 15:13:04,VALID,919.213,VALID,0,INVALID,118.986,VALID,450.501,VALID,21.964,VALID,139,VALID,0,
2016-11-12, 15:14:04,VALID,919.189,VALID,0,INVALID,118.514,VALID,219.18,VALID,22.1591,VALID,147,VALID,0,
2016-11-12, 15:15:04,VALID,919.185,VALID,0,VALID,104,VALID,209.51,VALID,22.3347,VALID,182,VALID,0,
2016-11-12, 15:16:04,VALID,919.169,VALID,0,INVALID,113.215,VALID,247.007,VALID,22.4306,VALID,165,VALID,0,
2016-11-12, 15:17:04,VALID,919.144,VALID,0,INVALID,112.857,VALID,453.831,VALID,22.6257,VALID,165,VALID,0,
2016-11-12, 15:18:04,VALID,919.179,VALID,0,VALID,104,VALID,494.014,VALID,22.8599,VALID,152,VALID,0,
2016-11-12, 15:19:04,VALID,919.165,VALID,0,VALID,89.4684,VALID,336.076,VALID,22.9983,VALID,90,VALID,0,
2016-11-12, 15:20:04,VALID,919.163,VALID,0,VALID,88.7289,VALID,343.597,VALID,23.0195,VALID,88,VALID,0,
2016-11-12, 15:21:04,VALID,919.163,VALID,0,VALID,95.2622,VALID,474.46,VALID,23.1154,VALID,88,VALID,0,
2016-11-12, 15:22:04,VALID,919.159,VALID,0,VALID,91.4429,VALID,466.832,VALID,23.3301,VALID,130,VALID,0,
2016-11-12, 15:23:04,VALID,919.135,VALID,0,VALID,87.4253,VALID,460.6,VALID,23.3691,VALID,128,VALID,0,
2016-11-12, 15:24:04,VALID,919.141,VALID,0,VALID,87.7455,VALID,413.863,VALID,23.2911,VALID,147,VALID,0,
2016-11-12, 15:25:04,VALID,919.15,VALID,0,VALID,94.4008,VALID,464.79,VALID,23.4472,VALID,154,VALID,0,
2016-11-12, 15:26:04,VALID,919.153,VALID,0,VALID,85.7482,VALID,443.41,VALID,23.662,VALID,176,VALID,0,
2016-11-12, 15:27:04,VALID,919.184,VALID,0,VALID,84.2006,VALID,449.964,VALID,23.7968,VALID,173,VALID,0,
2016-11-12, 15:28:04,VALID,919.164,VALID,0,VALID,83.8576,VALID,442.872,VALID,23.953,VALID,178,VALID,0,
2016-11-12, 15:29:04,VALID,919.176,VALID,0,VALID,82.6759,VALID,455.658,VALID,24.1287,VALID,184,VALID,0,
2016-11-12, 15:30:04,VALID,919.156,VALID,0,VALID,81.1436,VALID,415.26,VALID,24.363,VALID,153,VALID,0,
2016-11-12, 15:31:04,VALID,919.207,VALID,0,VALID,79.3445,VALID,322.001,VALID,24.5192,VALID,190,VALID,0,
2016-11-12, 15:32:04,VALID,919.202,VALID,0,VALID,79.9696,VALID,343.382,VALID,24.5173,VALID,190,VALID,0,
2016-11-12, 15:33:04,VALID,919.229,VALID,0,VALID,81.1131,VALID,280.529,VALID,24.6168,VALID,151,VALID,0,
2016-11-12, 15:34:04,VALID,919.231,VALID,0,VALID,78.5288,VALID,452.22,VALID,24.5192,VALID,142,VALID,0,
2016-11-12, 15:35:04,VALID,919.252,VALID,0,VALID,78.4221,VALID,483.055,VALID,24.3063,VALID,141,VALID,0,
2016-11-12, 15:36:04,VALID,919.234,VALID,0,VALID,79.9391,VALID,483.593,VALID,24.3825,VALID,90,VALID,0,
2016-11-12, 15:37:04,VALID,919.248,VALID,0,VALID,79.1234,VALID,485.527,VALID,24.4392,VALID,155,VALID,0,
2016-11-12, 15:38:04,VALID,919.254,VALID,0,VALID,79.1311,VALID,485.527,VALID,24.5387,VALID,192,VALID,0,
2016-11-12, 15:39:04,VALID,919.261,VALID,0,VALID,79.4207,VALID,491.436,VALID,24.7144,VALID,187,VALID,0,
2016-11-12, 15:40:04,VALID,919.261,VALID,0,VALID,77.5759,VALID,502.18,VALID,24.7516,VALID,173,VALID,0,
2016-11-12, 15:41:04,VALID,919.261,VALID,0,VALID,75.7081,VALID,505.725,VALID,24.734,VALID,224,VALID,0,
2016-11-12, 15:42:04,VALID,919.247,VALID,0,VALID,77.1795,VALID,514.321,VALID,24.3806,VALID,226,VALID,0,
2016-11-12, 15:43:04,VALID,919.286,VALID,0,VALID,78.2925,VALID,507.015,VALID,24.2068,VALID,226,VALID,0,
2016-11-12, 15:44:04,VALID,919.271,VALID,0,VALID,80.3279,VALID,495.841,VALID,24.2049,VALID,170,VALID,0,
2016-11-12, 15:45:04,VALID,919.284,VALID,0,VALID,79.7181,VALID,527.321,VALID,24.4039,VALID,176,VALID,0,
2016-11-12, 15:46:04,VALID,919.31,VALID,0,VALID,78.3458,VALID,504.221,VALID,24.4997,VALID,187,VALID,0,
2016-11-12, 15:47:04,VALID,919.328,VALID,0,VALID,76.501,VALID,559.231,VALID,24.6754,VALID,194,VALID,0,
2016-11-12, 15:48:04,VALID,919.332,VALID,0,VALID,75.2736,VALID,569.653,VALID,24.9097,VALID,194,VALID,0,
2016-11-12, 15:49:04,VALID,919.353,VALID,0,VALID,74.1072,VALID,575.885,VALID,24.9078,VALID,138,VALID,1.37188,
2016-11-12, 15:50:04,VALID,919.366,VALID,0,VALID,76.7068,VALID,533.445,VALID,24.6168,VALID,168,VALID,0.842969,
2016-11-12, 15:51:04,VALID,919.347,VALID,0,VALID,76.0893,VALID,598.232,VALID,24.6754,VALID,154,VALID,0,
2016-11-12, 15:52:04,VALID,919.334,VALID,0,VALID,74.1606,VALID,601.885,VALID,24.6345,VALID,135,VALID,0,
2016-11-12, 15:53:04,VALID,919.337,VALID,0,VALID,75.5862,VALID,610.158,VALID,24.7321,VALID,145,VALID,0,
2016-11-12, 15:54:04,VALID,919.314,VALID,0,VALID,74.7171,VALID,621.762,VALID,25.0445,VALID,186,VALID,0.951953,
2016-11-12, 15:55:04,VALID,919.319,VALID,0,VALID,72.9637,VALID,293.529,VALID,25.2593,VALID,187,VALID,0,
2016-11-12, 15:56:04,VALID,919.282,VALID,0,VALID,72.5673,VALID,432.666,VALID,25.2788,VALID,286,VALID,0,
2016-11-12, 15:57:04,VALID,919.333,VALID,0,VALID,74.1301,VALID,494.659,VALID,25.1402,VALID,304,VALID,0,
2016-11-12, 15:58:04,VALID,919.295,VALID,0,VALID,75.2812,VALID,582.976,VALID,25.0836,VALID,156,VALID,1.06133,
2016-11-12, 15:59:04,VALID,919.314,VALID,0,VALID,75.083,VALID,647.118,VALID,24.8278,VALID,137,VALID,0.23125,
2016-11-12, 16:00:04,VALID,919.334,VALID,0,VALID,76.501,VALID,610.91,VALID,24.8669,VALID,130,VALID,0,
2016-11-12, 16:01:04,VALID,919.355,VALID,0,VALID,77.1337,VALID,235.296,VALID,25.0231,VALID,110,VALID,0,
2016-11-12, 16:02:04,VALID,919.352,VALID,0,VALID,74.9687,VALID,311.472,VALID,25.0426,VALID,135,VALID,0,
2016-11-12, 16:03:04,VALID,919.338,VALID,0,VALID,75.9368,VALID,652.49,VALID,25.1402,VALID,95,VALID,0,
2016-11-12, 16:04:04,VALID,919.327,VALID,0,VALID,76.196,VALID,625.522,VALID,25.4136,VALID,95,VALID,0,
2016-11-12, 16:05:04,VALID,919.305,VALID,0,VALID,74.031,VALID,483.378,VALID,25.6655,VALID,96,VALID,0,
2016-11-12, 16:06:04,VALID,919.35,VALID,0,VALID,70.5852,VALID,321.786,VALID,25.6675,VALID,110,VALID,0,
2016-11-12, 16:07:04,VALID,919.319,VALID,0,VALID,73.3982,VALID,237.123,VALID,25.316,VALID,62,VALID,0.450391,
2016-11-12, 16:08:04,VALID,919.328,VALID,0,VALID,73.2,VALID,256.892,VALID,25.1598,VALID,65,VALID,0,
2016-11-12, 16:09:04,VALID,919.302,VALID,0,VALID,74.8772,VALID,330.811,VALID,25.0407,VALID,63,VALID,0,
2016-11-12, 16:10:04,VALID,919.31,VALID,0,VALID,75.3498,VALID,284.397,VALID,25.1207,VALID,43,VALID,0,
2016-11-12, 16:11:04,VALID,919.297,VALID,0,VALID,73.9471,VALID,356.812,VALID,25.1793,VALID,43,VALID,0,
2016-11-12, 16:12:04,VALID,919.283,VALID,0,VALID,75.5176,VALID,405.59,VALID,25.0231,VALID,107,VALID,0,
2016-11-12, 16:13:04,VALID,919.313,VALID,0,VALID,75.5633,VALID,696.004,VALID,24.7869,VALID,109,VALID,1.29297,
2016-11-12, 16:14:04,VALID,919.303,VALID,0,VALID,79.0472,VALID,685.582,VALID,24.7497,VALID,105,VALID,0,
2016-11-12, 16:15:04,VALID,919.286,VALID,0,VALID,75.4337,VALID,738.228,VALID,24.9431,VALID,151,VALID,1.18047,
2016-11-12, 16:16:04,VALID,919.288,VALID,0,VALID,76.1198,VALID,222.511,VALID,25.0426,VALID,194,VALID,0.278516,
2016-11-12, 16:17:04,VALID,919.297,VALID,0,VALID,74.2978,VALID,205.213,VALID,24.7888,VALID,161,VALID,0,
2016-11-12, 16:18:04,VALID,919.284,VALID,0,VALID,76.1122,VALID,205.32,VALID,24.6716,VALID,164,VALID,0,
2016-11-12, 16:19:04,VALID,919.306,VALID,0,VALID,76.196,VALID,212.948,VALID,24.6131,VALID,191,VALID,0,
2016-11-12, 16:20:04,VALID,919.297,VALID,0,VALID,77.027,VALID,217.246,VALID,24.5935,VALID,191,VALID,0,
2016-11-12, 16:21:04,VALID,919.287,VALID,0,VALID,77.9571,VALID,208.221,VALID,24.6149,VALID,191,VALID,0,
2016-11-12, 16:22:04,VALID,919.3,VALID,0,VALID,78.2086,VALID,188.237,VALID,24.6326,VALID,191,VALID,0,
2016-11-12, 16:23:04,VALID,919.299,VALID,0,VALID,78.0409,VALID,186.088,VALID,24.5759,VALID,71,VALID,0.78125,
2016-11-12, 16:24:04,VALID,919.32,VALID,0,VALID,81.075,VALID,193.609,VALID,24.3398,VALID,65,VALID,0.440234,
2016-11-12, 16:25:04,VALID,919.29,VALID,0,VALID,81.9746,VALID,195.328,VALID,24.086,VALID,62,VALID,0,
2016-11-12, 16:26:04,VALID,919.305,VALID,0,VALID,83.1029,VALID,198.229,VALID,23.9689,VALID,20,VALID,0.00195313,
2016-11-12, 16:27:04,VALID,919.303,VALID,0,VALID,81.8298,VALID,189.096,VALID,23.9103,VALID,3,VALID,0,
2016-11-12, 16:28:04,VALID,919.311,VALID,0,VALID,83.1334,VALID,178.675,VALID,23.7932,VALID,15,VALID,0,
2016-11-12, 16:29:04,VALID,919.311,VALID,0,VALID,85.306,VALID,165.997,VALID,23.7151,VALID,350,VALID,0,
2016-11-12, 16:30:04,VALID,919.288,VALID,0,VALID,84.3683,VALID,153.856,VALID,23.6779,VALID,351,VALID,0,
2016-11-12, 16:31:04,VALID,919.291,VALID,0,VALID,83.9186,VALID,146.227,VALID,23.598,INVALID,360,VALID,0,
2016-11-12, 16:32:04,VALID,919.274,VALID,0,VALID,85.5805,VALID,141.715,VALID,23.5199,INVALID,360,VALID,0,
2016-11-12, 16:33:04,VALID,919.274,VALID,0,VALID,87.0975,VALID,141.822,VALID,23.5199,VALID,342,VALID,0,
2016-11-12, 16:34:04,VALID,919.309,VALID,0,VALID,87.837,VALID,144.508,VALID,23.598,VALID,359,VALID,0,
2016-11-12, 16:35:04,VALID,919.306,VALID,0,VALID,88.6298,VALID,147.302,VALID,23.7169,VALID,359,VALID,0,
2016-11-12, 16:36:04,VALID,919.304,VALID,0,VALID,88.1267,VALID,151.492,VALID,23.834,VALID,358,VALID,0,
2016-11-12, 16:37:04,VALID,919.3,VALID,0,VALID,84.8334,VALID,158.798,VALID,23.8731,VALID,339,VALID,0,
2016-11-12, 16:38:04,VALID,919.357,VALID,0,VALID,84.902,VALID,168.683,VALID,23.8926,VALID,339,VALID,0,
2016-11-12, 16:39:04,VALID,919.327,VALID,0,VALID,85.6338,VALID,180.286,VALID,23.8713,VALID,339,VALID,0,
2016-11-12, 16:40:04,VALID,919.334,VALID,0,VALID,85.6186,VALID,195.865,VALID,23.9316,VALID,339,VALID,0,
2016-11-12, 16:41:04,VALID,919.333,VALID,0,VALID,85.5347,VALID,212.948,VALID,23.9316,VALID,339,VALID,0,
2016-11-12, 16:42:04,VALID,919.363,VALID,0,VALID,86.5944,VALID,228.42,VALID,23.8926,INVALID,360,VALID,0,
2016-11-12, 16:43:04,VALID,919.376,VALID,0,VALID,87.7074,VALID,239.379,VALID,23.9316,VALID,339,VALID,0,
2016-11-12, 16:44:04,VALID,919.407,VALID,0,VALID,88.4621,VALID,244.858,VALID,23.9707,VALID,339,VALID,0,
2016-11-12, 16:45:04,VALID,919.422,VALID,0,VALID,90.2841,VALID,245.933,VALID,24.0701,VALID,339,VALID,0,
2016-11-12, 16:46:04,VALID,919.464,VALID,0,VALID,82.5921,VALID,247.33,VALID,24.0683,VALID,339,VALID,0,
2016-11-12, 16:47:04,VALID,919.459,VALID,0,VALID,83.8347,VALID,246.363,VALID,23.9689,VALID,339,VALID,0,
2016-11-12, 16:48:04,VALID,919.474,VALID,0,VALID,86.2818,VALID,237.445,VALID,23.9707,VALID,339,VALID,0,
2016-11-12, 16:49:04,VALID,919.462,VALID,0,VALID,86.8307,VALID,221.651,VALID,23.9707,INVALID,360,VALID,0,
2016-11-12, 16:50:04,VALID,919.462,VALID,0,VALID,85.1841,VALID,201.13,VALID,24.0079,VALID,339,VALID,0,
2016-11-12, 16:51:04,VALID,919.465,VALID,0,VALID,87.2043,VALID,181.146,VALID,24.0469,INVALID,360,VALID,0,
2016-11-12, 16:52:04,VALID,919.449,VALID,0,VALID,82.7674,VALID,164.17,VALID,23.9884,VALID,339,VALID,0,
2016-11-12, 16:53:04,VALID,919.434,VALID,0,VALID,83.7432,VALID,153.211,VALID,23.9103,VALID,339,VALID,0,
2016-11-12, 16:54:04,VALID,919.444,VALID,0,VALID,84.4217,VALID,147.302,VALID,23.9493,VALID,339,VALID,0,
2016-11-12, 16:55:04,VALID,919.439,VALID,0,VALID,85.2527,VALID,147.409,VALID,24.0274,VALID,339,VALID,0,
2016-11-12, 16:56:04,VALID,919.437,VALID,0,VALID,82.0432,VALID,151.385,VALID,24.0079,VALID,339,VALID,0,
2016-11-12, 16:57:04,VALID,919.423,VALID,0,VALID,83.1791,VALID,156.972,VALID,23.9121,VALID,339,VALID,0,
2016-11-12, 16:58:04,VALID,919.416,VALID,0,VALID,84.0558,VALID,163.955,VALID,23.8145,VALID,339,VALID,0,
2016-11-12, 16:59:04,VALID,919.398,VALID,0,VALID,83.5679,VALID,171.046,VALID,23.7346,VALID,339,VALID,0,
2016-11-12, 17:00:04,VALID,919.393,VALID,0,VALID,84.7876,VALID,178.03,VALID,23.6956,VALID,339,VALID,0,
2016-11-12, 17:01:04,VALID,919.411,VALID,0,VALID,85.2679,VALID,185.981,VALID,23.7169,VALID,339,VALID,0,
2016-11-12, 17:02:04,VALID,919.412,VALID,0,VALID,85.1002,VALID,192.535,VALID,23.7169,VALID,339,VALID,0,
2016-11-12, 17:03:04,VALID,919.415,VALID,0,VALID,84.6962,VALID,195.435,VALID,23.6779,VALID,339,VALID,0,
2016-11-12, 17:04:04,VALID,919.421,VALID,0,VALID,84.193,VALID,199.303,VALID,23.637,VALID,339,VALID,0,
2016-11-12, 17:05:04,VALID,919.44,VALID,0,VALID,84.7038,VALID,206.717,VALID,23.6193,VALID,339,VALID,0,
2016-11-12, 17:06:04,VALID,919.408,VALID,0,VALID,84.4598,VALID,214.13,VALID,23.5803,VALID,339,VALID,0,
2016-11-12, 17:07:04,VALID,919.385,VALID,0,VALID,85.0316,VALID,219.932,VALID,23.5803,VALID,339,VALID,0,
2016-11-12, 17:08:04,VALID,919.398,VALID,0,VALID,85.3594,VALID,220.684,VALID,23.5998,VALID,339,VALID,0,
2016-11-12, 17:09:04,VALID,919.415,VALID,0,VALID,84.8105,VALID,224.982,VALID,23.7169,VALID,339,VALID,0,
2016-11-12, 17:10:04,VALID,919.411,VALID,0,VALID,85.2069,VALID,233.04,VALID,23.8536,VALID,339,VALID,0,
2016-11-12, 17:11:04,VALID,919.404,VALID,0,VALID,82.9275,VALID,223.907,VALID,23.9707,VALID,339,VALID,0,
2016-11-12, 17:12:04,VALID,919.391,VALID,0,VALID,83.6594,VALID,226.056,VALID,24.1092,VALID,339,VALID,0,
2016-11-12, 17:13:04,VALID,919.413,VALID,0,VALID,80.4957,VALID,228.205,VALID,24.1269,VALID,339,VALID,0,
2016-11-12, 17:14:04,VALID,919.401,VALID,0,VALID,81.9746,VALID,230.032,VALID,24.0683,VALID,339,VALID,0,
2016-11-12, 17:15:04,VALID,919.421,VALID,0,VALID,82.2185,VALID,228.42,VALID,24.1073,VALID,339,VALID,0,
2016-11-12, 17:16:04,VALID,919.414,VALID,0,VALID,78.8871,VALID,224.122,VALID,24.0488,VALID,339,VALID,0,
2016-11-12, 17:17:04,VALID,919.417,VALID,0,VALID,81.1208,VALID,224.552,VALID,23.9512,VALID,339,VALID,0,
2016-11-12, 17:18:04,VALID,919.438,VALID,0,VALID,80.7777,VALID,229.065,VALID,23.9121,VALID,339,VALID,0,
2016-11-12, 17:19:04,VALID,919.435,VALID,0,VALID,82.0737,VALID,234.974,VALID,23.9139,VALID,339,VALID,0,
2016-11-12, 17:20:04,VALID,919.426,VALID,0,VALID,82.249,VALID,235.404,VALID,23.9512,VALID,339,VALID,0,
2016-11-12, 17:21:04,VALID,919.471,VALID,0,VALID,80.9302,VALID,233.577,VALID,24.0097,VALID,339,VALID,0,
2016-11-12, 17:22:04,VALID,919.449,VALID,0,VALID,80.7701,VALID,238.627,VALID,23.9707,VALID,339,VALID,0,
2016-11-12, 17:23:04,VALID,919.444,VALID,0,VALID,81.8221,VALID,245.718,VALID,23.9316,VALID,339,VALID,0,
2016-11-12, 17:24:04,VALID,919.455,VALID,0,VALID,81.4791,VALID,251.842,VALID,23.9298,INVALID,360,VALID,0,
2016-11-12, 17:25:04,VALID,919.427,VALID,0,VALID,81.5401,VALID,261.512,VALID,24.0683,VALID,339,VALID,0,
2016-11-12, 17:26:04,VALID,919.436,VALID,0,VALID,80.3279,VALID,274.082,VALID,24.1854,VALID,339,VALID,0,
2016-11-12, 17:27:04,VALID,919.415,VALID,0,VALID,80.8692,VALID,284.612,VALID,24.1854,INVALID,360,VALID,0,
2016-11-12, 17:28:04,VALID,919.435,VALID,0,VALID,80.5033,VALID,293.744,VALID,24.1269,VALID,339,VALID,0,
2016-11-12, 17:29:04,VALID,919.397,VALID,0,VALID,81.0674,VALID,294.496,VALID,24.1854,VALID,339,VALID,0,
2016-11-12, 17:30:04,VALID,919.409,VALID,0,VALID,79.2759,VALID,291.703,VALID,24.1836,VALID,339,VALID,0,
2016-11-12, 17:31:04,VALID,919.408,VALID,0,VALID,80.9302,VALID,297.827,VALID,24.2245,VALID,338,VALID,0,
2016-11-12, 17:32:04,VALID,919.391,VALID,0,VALID,80.4728,VALID,312.976,VALID,24.283,VALID,338,VALID,0,
2016-11-12, 17:33:04,VALID,919.354,VALID,0,VALID,78.4831,VALID,333.39,VALID,24.3416,VALID,338,VALID,0,
2016-11-12, 17:34:04,VALID,919.368,VALID,0,VALID,80.145,VALID,353.911,VALID,24.3611,VALID,338,VALID,0,
2016-11-12, 17:35:04,VALID,919.36,VALID,0,VALID,80.1145,VALID,376.151,VALID,24.4587,VALID,338,VALID,0,
2016-11-12, 17:36:04,VALID,919.337,VALID,0,VALID,79.3521,VALID,386.466,VALID,24.4959,VALID,338,VALID,0,
2016-11-12, 17:37:04,VALID,919.343,VALID,0,VALID,76.7068,VALID,393.772,VALID,24.574,VALID,338,VALID,0,
2016-11-12, 17:38:04,VALID,919.308,VALID,0,VALID,78.3001,VALID,420.095,VALID,24.6345,VALID,338,VALID,0,
2016-11-12, 17:39:04,VALID,919.296,VALID,0,VALID,76.7678,VALID,420.525,VALID,24.693,VALID,284,VALID,0,
2016-11-12, 17:40:04,VALID,919.23,VALID,0,VALID,77.7283,VALID,406.342,VALID,24.7321,VALID,280,VALID,0,
2016-11-12, 17:41:04,VALID,919.229,VALID,0,VALID,75.7234,VALID,392.375,VALID,24.7302,VALID,257,VALID,0,
2016-11-12, 17:42:04,VALID,919.216,VALID,0,VALID,77.7817,VALID,385.284,VALID,24.7321,VALID,258,VALID,0,
2016-11-12, 17:43:04,VALID,919.203,VALID,0,VALID,80.3737,VALID,394.954,VALID,24.8688,VALID,4,VALID,0,
2016-11-12, 17:44:04,VALID,919.18,VALID,0,VALID,80.5948,VALID,468.873,VALID,25.064,VALID,31,VALID,0.0632813,
2016-11-12, 17:45:04,VALID,919.194,VALID,0,VALID,80.1526,VALID,623.588,VALID,25.1793,VALID,288,VALID,0,
2016-11-12, 17:46:04,VALID,919.202,VALID,0,VALID,79.0701,VALID,737.046,VALID,25.2769,VALID,344,VALID,0.835156,
2016-11-12, 17:47:04,VALID,919.14,VALID,0,VALID,79.7104,VALID,856.521,VALID,25.2769,VALID,139,VALID,0,
2016-11-12, 17:48:04,VALID,919.167,VALID,0,VALID,79.6266,VALID,320.175,VALID,25.355,VALID,179,VALID,0,
2016-11-12, 17:49:04,VALID,919.119,VALID,0,VALID,81.4562,VALID,286.223,VALID,25.4331,VALID,118,VALID,0,
2016-11-12, 17:50:04,VALID,919.11,VALID,0,VALID,80.4728,VALID,257.859,VALID,25.4917,VALID,39,VALID,0.222656,
2016-11-12, 17:51:04,VALID,919.089,VALID,0,VALID,79.6037,VALID,226.808,VALID,25.5308,VALID,35,VALID,0.561328,
2016-11-12, 17:52:04,VALID,919.07,VALID,0,VALID,82.2872,VALID,205.213,VALID,25.4527,VALID,47,VALID,0.936719,
2016-11-12, 17:53:04,VALID,919.052,VALID,0,VALID,82.1347,VALID,193.609,VALID,25.3941,VALID,29,VALID,0.00351562,
2016-11-12, 17:54:04,VALID,919.038,VALID,0,VALID,81.2351,VALID,182.972,VALID,25.316,VALID,77,VALID,0,
2016-11-12, 17:55:04,VALID,919.056,VALID,0,VALID,81.4257,VALID,175.881,VALID,25.2183,VALID,78,VALID,0,
2016-11-12, 17:56:04,VALID,919.015,VALID,0,VALID,81.8526,VALID,179.104,VALID,25.1988,VALID,78,VALID,0,
2016-11-12, 17:57:04,VALID,918.995,VALID,0,VALID,81.5324,VALID,189.849,VALID,25.2183,VALID,78,VALID,0,
2016-11-12, 17:58:04,VALID,919.016,VALID,0,VALID,81.2199,VALID,216.709,VALID,25.2574,VALID,79,VALID,0,
2016-11-12, 17:59:04,VALID,919.005,VALID,0,VALID,81.6697,VALID,239.701,VALID,25.1012,VALID,79,VALID,0,
2016-11-12, 18:00:04,VALID,918.996,VALID,0,VALID,82.1271,VALID,273.223,VALID,24.9255,VALID,121,VALID,0,
2016-11-12, 18:01:04,VALID,918.967,VALID,0,VALID,82.7598,VALID,287.19,VALID,24.8669,VALID,121,VALID,0,
2016-11-12, 18:02:04,VALID,918.969,VALID,0,VALID,83.2934,VALID,307.819,VALID,24.904,VALID,16,VALID,0,
2016-11-12, 18:03:04,VALID,918.966,VALID,0,VALID,84.1396,VALID,303.736,VALID,24.8278,VALID,348,VALID,0,
2016-11-12, 18:04:04,VALID,918.91,VALID,0,VALID,82.9275,VALID,321.679,VALID,24.7693,VALID,359,VALID,0,
2016-11-12, 18:05:04,VALID,918.903,VALID,0,VALID,83.3925,VALID,384.854,VALID,24.7088,VALID,271,VALID,0,
2016-11-12, 18:06:04,VALID,918.856,VALID,0,VALID,84.6733,VALID,687.946,VALID,24.7888,VALID,4,VALID,0,
2016-11-12, 18:07:04,VALID,918.836,VALID,0,VALID,84.0558,VALID,1075.92,VALID,25.0621,VALID,355,VALID,0,
2016-11-12, 18:08:04,VALID,918.821,VALID,0,VALID,81.4333,VALID,1071.08,VALID,25.3179,VALID,344,VALID,0,
2016-11-12, 18:09:04,VALID,918.791,VALID,0,VALID,81.1818,VALID,1067,VALID,25.7456,VALID,353,VALID,0.192969,
2016-11-12, 18:10:04,VALID,918.768,VALID,0,VALID,76.5467,VALID,1060.44,VALID,26.0776,VALID,259,VALID,0,
2016-11-12, 18:11:04,VALID,918.705,VALID,0,VALID,77.7665,VALID,1038.42,VALID,26.2925,VALID,321,VALID,0,
2016-11-12, 18:12:04,VALID,918.677,VALID,0,VALID,74.0005,VALID,1068.82,VALID,26.5269,VALID,255,VALID,0.0078125,
2016-11-12, 18:13:04,VALID,918.684,VALID,0,VALID,75.4794,VALID,1072.69,VALID,26.3316,VALID,326,VALID,0.235938,
2016-11-12, 18:14:04,VALID,918.646,VALID,0,VALID,77.0727,VALID,1062.81,VALID,26.1147,VALID,20,VALID,0.786328,
2016-11-12, 18:15:04,VALID,918.628,VALID,0,VALID,75.4185,VALID,1094.18,VALID,25.9409,VALID,261,VALID,0,
2016-11-12, 18:16:04,VALID,918.618,VALID,0,VALID,76.7144,VALID,1093.86,VALID,25.9995,VALID,316,VALID,0,
2016-11-12, 18:17:04,VALID,918.574,VALID,0,VALID,79.7257,VALID,1092.03,VALID,26.0561,VALID,2,VALID,0.536719,
2016-11-12, 18:18:04,VALID,918.575,VALID,0,VALID,75.0373,VALID,1082.68,VALID,26.0776,VALID,266,VALID,0.5,
2016-11-12, 18:19:04,VALID,918.549,VALID,0,VALID,76.257,VALID,1092.14,VALID,25.978,VALID,327,VALID,0,
2016-11-12, 18:20:04,VALID,918.542,VALID,0,VALID,77.6292,VALID,1092.03,VALID,26.0952,VALID,258,VALID,0,
2016-11-12, 18:21:04,VALID,918.507,VALID,0,VALID,78.9938,VALID,1088.16,VALID,26.271,VALID,2,VALID,0,
2016-11-12, 18:22:04,VALID,918.435,VALID,0,VALID,73.8785,VALID,1072.8,VALID,26.4858,VALID,291,VALID,0.2875,
2016-11-12, 18:23:04,VALID,918.451,VALID,0,VALID,76.9889,VALID,1070.01,VALID,26.6421,VALID,360,VALID,0,
2016-11-12, 18:24:04,VALID,918.44,VALID,0,VALID,73.0323,VALID,1063.35,VALID,26.857,VALID,54,VALID,0,
2016-11-12, 18:25:04,VALID,918.416,VALID,0,VALID,75.3117,VALID,1063.24,VALID,26.9742,VALID,45,VALID,0,
2016-11-12, 18:26:04,VALID,918.402,VALID,0,VALID,72.5597,VALID,1079.57,VALID,27.2868,VALID,341,VALID,0,
2016-11-12, 18:27:04,VALID,918.408,VALID,0,VALID,70.509,VALID,1074.84,VALID,27.5798,VALID,276,VALID,0,
2016-11-12, 18:28:04,VALID,918.388,VALID,0,VALID,72.6816,VALID,1070.54,VALID,27.0307,VALID,278,VALID,0.0144531,
2016-11-12, 18:29:04,VALID,918.325,VALID,0,VALID,75.3117,VALID,817.412,VALID,26.7593,VALID,315,VALID,0.00585938,